Location: Unspecified
(0.0000°N, 0.0000°E)
Time: 16:49:03
(UTC+00:00)

DMSP 5D-2 F13 DEB - Visible Passes

Search period start: 14 January 2026 00:00
Search period end: 24 January 2026 00:00
Orbit: 779 x 837 km, 98.9° (Epoch: 14 January)

Date Brightness Start Highest point End Pass type
(mag) Time Alt. Az. Time Alt. Az. Time Alt. Az.
14 Jan ? 04:45:03 10° NNE 04:50:14 78° ESE 04:55:31 10° S visible
15 Jan ? 04:21:09 10° NE 04:25:58 39° ESE 04:30:51 10° S visible
16 Jan ? 03:57:57 10° ENE 04:01:42 20° ESE 04:05:29 10° SSE visible
16 Jan ? 05:36:59 10° NNW 05:41:12 26° WNW 05:45:30 10° SW visible
17 Jan ? 05:11:53 10° N 05:16:54 50° WNW 05:22:02 10° SSW visible
18 Jan ? 04:47:23 10° NNE 04:52:36 82° ESE 04:57:55 10° S visible
19 Jan ? 04:23:25 10° NNE 04:28:19 41° ESE 04:33:18 10° S visible
20 Jan ? 04:00:09 10° NE 04:04:02 21° ESE 04:07:58 10° SSE visible
20 Jan ? 05:39:22 10° NNW 05:43:33 24° WNW 05:47:47 10° SW visible
21 Jan ? 03:39:11 10° E 03:39:46 10° ESE 03:40:23 10° ESE visible
21 Jan ? 05:14:13 10° N 05:19:14 48° WNW 05:24:21 10° SSW visible
22 Jan ? 04:49:40 10° NNE 04:54:55 86° ESE 05:00:16 10° SSW visible
23 Jan ? 04:25:38 10° NNE 04:30:36 43° ESE 04:35:39 10° S visible
